Weather History for PATQ - February, 2014

Change the Weather History Date:

Saturday, February 8, 2014

  Actual Average (PABR) Record (PABR)
Temperature  
Mean Temperature -6 °F -14 °F  
Max Temperature 0 °F -8 °F 32 °F (1982)
Min Temperature -13 °F -20 °F -50 °F (1925)
Degree Days  
Heating Degree Days 72 79  
Month to date heating degree days 632  
Since 1 July heating degree days 11268  
Cooling Degree Days 0    
Month to date cooling degree days  
Year to date cooling degree days  
Moisture  
Dew Point -13 °F    
Average Humidity 79    
Maximum Humidity 84    
Minimum Humidity 70    
Precipitation  
Precipitation 0.00 in 0.01 in 0.13 in (1982)
Month to date precipitation 0.04  
Year to date precipitation 0.17  
Snow  
Snow 0.00 in 0.10 in 1.40 in (2006)
Month to date snowfall 0.7  
Since 1 July snowfall 27.1  
Snow Depth -    
Sea Level Pressure  
Sea Level Pressure 30.90 in    
Wind  
Wind Speed 4 mph (South)    
Max Wind Speed 12 mph    
Max Gust Speed -    
Visibility 6 miles    
Events Snow    
T = Trace of Precipitation, MM = Missing Value Source: NWS Daily Summary

Daily Weather History Graph

Daily Weather History Graph

Search for Another Location

Airport or City:

Trip Planner

Search our weather history database for the weather conditions in past years. The results will help you decide how hot, cold, wet, or windy it might be!

Date:

Astronomy

Feb. 08, 2014 Rise Set
Actual Time 10:41 AM AKST 4:47 PM AKST
Civil Twilight 9:24 AM AKST 6:05 PM AKST
Nautical Twilight 8:07 AM AKST 7:21 PM AKST
Astronomical Twilight 6:55 AM AKST 8:33 PM AKST
Moon 9:58 AM AKST (2/8) 7:53 AM AKST (2/8)
Length of Visible Light 8h 41m
Length of Day
6h 05m
Waxing Gibbous, 70% of the Moon is Illuminated
Feb 8
Waxing Gibbous
Feb 14
Full
Feb 22
Last Quarter
Feb 28
New
Mar 8
First Quarter

Hourly Weather History & Observations

Time (AKST) Temp. Windchill Dew Point Humidity Pressure Visibility Wind Dir Wind Speed Gust Speed Precip Events Conditions
12:56 AM -11.9 °F - -17.0 °F 78% 31.01 in 5.0 mi Calm Calm - N/A   Haze
12:58 AM -11.2 °F - -16.6 °F 77% 30.98 in 1.8 mi Calm Calm - N/A   Haze
1:00 AM -11.2 °F -20.6 °F -16.6 °F 77% 30.98 in 1.0 mi West 3.5 mph - N/A   Haze
1:02 AM -11.2 °F -20.6 °F -16.6 °F 77% 30.98 in 0.5 mi West 3.5 mph - N/A   Haze
1:11 AM -11.2 °F -20.6 °F -16.6 °F 77% 30.98 in 0.2 mi West 3.5 mph - N/A   Haze
1:56 AM -11.9 °F -21.5 °F -17.0 °F 78% 31.00 in 0.2 mi WSW 3.5 mph - N/A   Haze
2:32 AM -13.0 °F -22.7 °F -18.4 °F 77% 30.97 in 0.5 mi SSW 3.5 mph - N/A   Haze
2:56 AM -11.2 °F - -16.6 °F 77% 30.97 in 0.5 mi Calm Calm - N/A   Haze
3:22 AM -11.2 °F - -16.6 °F 77% 30.96 in 0.2 mi Calm Calm - N/A   Haze
3:56 AM -13.0 °F - -17.9 °F 79% 30.99 in 0.5 mi Calm Calm - N/A   Haze
4:46 AM -13.0 °F -25.1 °F -18.4 °F 77% 30.95 in 0.2 mi SSW 4.6 mph - N/A   Haze
4:56 AM -11.9 °F -27.3 °F -17.9 °F 75% 30.97 in 0.5 mi SSW 6.9 mph - N/A   Haze
5:19 AM -11.2 °F -26.4 °F -18.4 °F 70% 30.92 in 1.0 mi South 6.9 mph - N/A   Haze
5:25 AM -11.2 °F -24.8 °F -18.4 °F 70% 30.93 in 1.5 mi SSW 5.8 mph - N/A   Haze
5:29 AM -11.2 °F -26.4 °F -16.6 °F 77% 30.93 in 3.0 mi SSW 6.9 mph - N/A   Haze
5:34 AM -11.2 °F -24.8 °F -16.6 °F 77% 30.92 in 1.8 mi South 5.8 mph - N/A   Haze
5:39 AM -11.2 °F -24.8 °F -16.6 °F 77% 30.92 in 1.0 mi South 5.8 mph - N/A   Haze
5:56 AM -11.2 °F -26.4 °F -16.6 °F 77% 30.92 in 1.5 mi South 6.9 mph - N/A   Haze
6:09 AM -9.4 °F -20.9 °F -16.6 °F 71% 30.93 in 2.5 mi South 4.6 mph - N/A   Haze
6:25 AM -9.4 °F -18.6 °F -14.8 °F 77% 30.92 in 7.0 mi South 3.5 mph - N/A   Overcast
6:56 AM -8.9 °F -22.1 °F -13.9 °F 79% 30.95 in 10.0 mi South 5.8 mph - N/A   Overcast
7:48 AM -7.6 °F -23.4 °F -13.0 °F 77% 30.90 in 10.0 mi South 8.1 mph - N/A   Overcast
7:56 AM -8.0 °F -25.0 °F -13.0 °F 79% 30.92 in 10.0 mi South 9.2 mph - N/A   Overcast
8:56 AM -7.6 °F -22.1 °F -11.2 °F 84% 30.89 in 10.0 mi SSE 6.9 mph - N/A   Overcast
9:56 AM -6.9 °F -24.8 °F -10.8 °F 83% 30.89 in 10.0 mi SSE 10.4 mph - 0.00 in Snow Light Snow
10:56 AM -6.0 °F -22.6 °F -9.9 °F 83% 30.89 in 10.0 mi SSE 9.2 mph - 0.00 in   Overcast
11:56 AM -5.8 °F -23.4 °F -9.4 °F 84% 30.86 in 10.0 mi SSE 10.4 mph - N/A Snow Light Snow
12:56 PM -4.9 °F -21.3 °F -8.9 °F 83% 30.87 in 10.0 mi SSE 9.2 mph - 0.00 in   Overcast
1:56 PM -4.0 °F -17.8 °F -8.0 °F 83% 30.86 in 10.0 mi SE 6.9 mph - N/A   Overcast
2:56 PM -2.9 °F -17.7 °F -6.9 °F 83% 30.84 in 10.0 mi SE 8.1 mph - 0.00 in   Overcast
3:56 PM -2.9 °F -19.8 °F -6.9 °F 83% 30.83 in 10.0 mi SE 10.4 mph - N/A   Overcast
4:56 PM -2.9 °F -20.8 °F -6.9 °F 83% 30.82 in 10.0 mi SSE 11.5 mph - N/A   Overcast
5:56 PM -1.8 °F -16.4 °F -6.0 °F 83% 30.82 in 10.0 mi South 8.1 mph - N/A   Overcast
6:56 PM -0.9 °F -15.3 °F -4.9 °F 83% 30.81 in 10.0 mi South 8.1 mph - N/A   Overcast
7:56 PM -0.9 °F -8.9 °F -4.9 °F 83% 30.79 in 10.0 mi South 3.5 mph - N/A   Overcast
8:56 PM -0.9 °F -11.0 °F -4.9 °F 83% 30.78 in 10.0 mi South 4.6 mph - N/A   Overcast
9:56 PM 0.1 °F -11.4 °F -4.0 °F 83% 30.77 in 10.0 mi SSW 5.8 mph - N/A   Overcast
10:56 PM -0.9 °F -12.7 °F -4.9 °F 83% 30.76 in 10.0 mi SSW 5.8 mph - N/A   Clear
11:56 PM -0.9 °F -11.0 °F -4.9 °F 83% 30.76 in 10.0 mi SW 4.6 mph - N/A   Overcast